Volver al catálogo

STARLINK-3692

ActivoComunicacionesVLEO
NORAD 51958·PAYLOAD·🇺🇸 United States

Lanzado Mar 9, 2022 desde Cape Canaveral Space Force Station

Loading…

Próximos Pases (próximas 24 horas)

TLE

ActualizadoSource: CelesTrak SupGP

Época: Sep 14, 2026, 19:57 UTC

1 51958C 22025C   26257.83173611  .00040193  00000+0  12925-2 0  2575
2 51958  53.1587 213.3325 0001313  93.8722 300.8309 15.31681900    15

Sigue STARLINK-3692 en tiempo real con AllMySat

Download on the App Store